Back to catalog

ARIANE 2 DEB

AliveGTO
NORAD 33578·DEBRIS·🇫🇷 France

Launched Jan 27, 1989 from Guiana Space Centre

Loading…

TLE

StaleSource: Space-Track

Epoch: Sep 13, 2026, 05:32 UTC

1 33578U 89006BW  26256.23120018  .00000308  00000-0  27016-2 0  9996
2 33578   8.6095 348.4035 7152438 250.5337  24.4307  2.31181471167190

Track ARIANE 2 DEB in real time with AllMySat

Download on the App Store